DO5RS-5 Weather Reports


time (UTC)temp
C
wind
direction
speed
KPH
gust
KPH
rain 1hr
cm
rain 24hr
cm
rain mn
cm
humidity
%
barometer
mb
20260901174909 21 0.0 0.0 0.00 0.00 0.00 61 1023.0
20260901172908 22 0.0 0.0 0.00 0.00 0.00 59 1022.8
20260901170910 22 0.0 0.0 0.00 0.00 0.00 56 1022.8
20260901164905 22 0.0 0.0 0.00 0.00 0.00 57 1022.9
20260901163910 23 0.0 0.0 0.00 0.00 0.00 55 1022.8
20260901161906 26 0.0 0.0 0.00 0.00 0.00 49 1022.4
20260901160906 27 0.0 0.0 0.00 0.00 0.00 46 1022.4
20260901155908 26 0.0 0.0 0.00 0.00 0.00 47 1022.2
20260901154906 26 0.0 0.0 0.00 0.00 0.00 48 1022.2
20260901153918 26 0.0 0.0 0.00 0.00 0.00 47 1022.3
20260901151908 24 0.0 0.0 0.00 0.00 0.00 49 1022.4
20260901150908 24 0.0 0.0 0.00 0.00 0.00 45 1022.4
20260901145906 24 0.0 0.0 0.00 0.00 0.00 45 1022.1
20260901144906 24 0.0 0.0 0.00 0.00 0.00 44 1022.3
20260901143905 26 0.0 0.0 0.00 0.00 0.00 44 1022.1
20260901142908 25 0.0 0.0 0.00 0.00 0.00 45 1022.2
20260901134906 26 0.0 0.0 0.00 0.00 0.00 47 1022.3
20260901133905 23 0.0 0.0 0.00 0.00 0.00 49 1022.4
20260901132905 24 0.0 0.0 0.00 0.00 0.00 48 1022.5
20260901131905 25 0.0 0.0 0.00 0.00 0.00 47 1022.5
20260901130907 26 0.0 0.0 0.00 0.00 0.00 48 1022.6
20260901125907 25 0.0 0.0 0.00 0.00 0.00 49 1022.7
20260901124906 25 0.0 0.0 0.00 0.00 0.00 51 1022.8
20260901123909 25 0.0 0.0 0.00 0.00 0.00 49 1022.9
20260901121910 27 0.0 0.0 0.00 0.00 0.00 47 1022.7
20260901114905 25 0.0 0.0 0.00 0.00 0.00 53 1023.0
20260901113909 24 0.0 0.0 0.00 0.00 0.00 55 1023.1
20260901111905 23 0.0 0.0 0.00 0.00 0.00 62 1023.3
20260901110905 22 0.0 0.0 0.00 0.00 0.00 65 1023.5
20260901105905 22 0.0 0.0 0.00 0.00 0.00 66 1023.6
20260901104904 21 0.0 0.0 0.00 0.00 0.00 69 1023.8
20260901103904 20 0.0 0.0 0.00 0.00 0.00 70 1023.7
20260901102904 20 0.0 0.0 0.00 0.00 0.00 73 1024.0
20260901101904 19 0.0 0.0 0.00 0.00 0.00 75 1024.0
20260901100909 19 0.0 0.0 0.00 0.00 0.00 74 1023.9
20260901094904 19 0.0 0.0 0.00 0.00 0.00 77 1024.1
20260901093904 19 0.0 0.0 0.00 0.00 0.00 77 1024.2
20260901092906 19 0.0 0.0 0.00 0.00 0.00 80 1024.2
20260901091907 18 0.0 0.0 0.00 0.00 0.00 80 1024.3
20260901090906 18 0.0 0.0 0.00 0.00 0.00 80 1024.3
20260901085906 18 0.0 0.0 0.00 0.00 0.00 80 1024.3
20260901084905 18 0.0 0.0 0.00 0.00 0.00 81 1024.2
20260901083904 19 0.0 0.0 0.00 0.00 0.00 81 1024.2
20260901082911 18 0.0 0.0 0.00 0.00 0.00 83 1024.4
20260901080906 18 0.0 0.0 0.00 0.00 0.00 85 1024.4
20260901075905 17 0.0 0.0 0.00 0.00 0.00 87 1024.3
20260901074905 17 0.0 0.0 0.00 0.00 0.00 86 1024.2
20260901073904 17 0.0 0.0 0.00 0.00 0.00 86 1024.1
20260901072904 17 0.0 0.0 0.00 0.00 0.00 87 1024.0
20260901071905 17 0.0 0.0 0.00 0.00 0.00 88 1024.0
20260901070906 17 0.0 0.0 0.00 0.00 0.00 88 1023.9
20260901065904 17 0.0 0.0 0.00 0.00 0.00 88 1024.0
20260901064904 17 0.0 0.0 0.00 0.00 0.00 88 1023.9
20260901063906 17 0.0 0.0 0.00 0.00 0.00 88 1023.8
20260901062910 17 0.0 0.0 0.00 0.00 0.00 89 1023.8
20260901060904 17 0.0 0.0 0.00 0.00 0.00 88 1023.7
20260901055904 16 0.0 0.0 0.00 0.00 0.00 89 1023.7
20260901054904 17 0.0 0.0 0.00 0.00 0.00 88 1023.6
20260901053905 17 0.0 0.0 0.00 0.00 0.00 88 1023.6
20260901052905 17 0.0 0.0 0.00 0.00 0.00 89 1023.5
20260901051905 16 0.0 0.0 0.00 0.00 0.00 89 1023.5
20260901050905 16 0.0 0.0 0.00 0.00 0.00 88 1023.5
20260901045905 16 0.0 0.0 0.00 0.00 0.00 88 1023.3
20260901044905 16 0.0 0.0 0.00 0.00 0.00 89 1023.3
20260901043905 16 0.0 0.0 0.00 0.00 0.00 88 1023.4
20260901042904 16 0.0 0.0 0.00 0.00 0.00 88 1023.3
20260901041904 16 0.0 0.0 0.00 0.00 0.00 90 1023.1
20260901040905 16 0.0 0.0 0.00 0.00 0.00 89 1023.1
20260901035906 16 0.0 0.0 0.00 0.00 0.00 89 1023.1
20260901034905 16 0.0 0.0 0.00 0.00 0.00 89 1023.1
20260901033904 16 0.0 0.0 0.00 0.00 0.00 89 1023.0
20260901032904 16 0.0 0.0 0.00 0.00 0.00 89 1023.0
20260901031906 16 0.0 0.0 0.00 0.00 0.00 89 1022.8
20260901030905 16 0.0 0.0 0.00 0.00 0.00 90 1022.9
20260901025906 16 0.0 0.0 0.00 0.00 0.00 89 1022.8
20260901024906 17 0.0 0.0 0.00 0.00 0.00 89 1022.7
20260901023906 16 0.0 0.0 0.00 0.00 0.00 88 1022.0
20260901022910 17 0.0 0.0 0.00 0.00 0.00 88 1022.5
20260901020905 16 0.0 0.0 0.00 0.00 0.00 88 1022.4
20260901015905 16 0.0 0.0 0.00 0.00 0.00 88 1022.3
20260901014905 16 0.0 0.0 0.00 0.00 0.00 88 1022.2
20260901013906 17 0.0 0.0 0.00 0.00 0.00 88 1022.2
20260901012905 17 0.0 0.0 0.00 0.00 0.00 88 1022.3
20260901011905 17 0.0 0.0 0.00 0.00 0.00 88 1022.3
20260901010905 16 0.0 0.0 0.00 0.00 0.00 88 1022.2
20260901005905 16 0.0 0.0 0.00 0.00 0.00 88 1022.2
20260901004905 17 0.0 0.0 0.00 0.00 0.00 86 1022.1
20260901003907 17 0.0 0.0 0.00 0.00 0.00 86 1022.0
20260901002906 16 0.0 0.0 0.00 0.00 0.00 86 1022.1
20260901001906 17 0.0 0.0 0.00 0.00 0.00 86 1022.0
20260901000906 17 0.0 0.0 0.00 0.00 0.00 86 1022.0
20260831235904 17 0.0 0.0 0.00 0.00 0.00 87 1021.9
20260831234904 17 0.0 0.0 0.00 0.00 0.00 86 1021.9
20260831233906 17 0.0 0.0 0.00 0.00 0.00 86 1021.8
20260831232905 17 0.0 0.0 0.00 0.00 0.00 86 1022.0
20260831231904 17 0.0 0.0 0.00 0.00 0.00 86 1021.9
20260831230905 17 0.0 0.0 0.00 0.00 0.00 86 1021.9
20260831225906 17 0.0 0.0 0.00 0.00 0.00 87 1022.0
20260831224904 17 0.0 0.0 0.00 0.00 0.00 86 1021.9
20260831223907 17 0.0 0.0 0.00 0.00 0.00 86 1021.8
20260831222906 17 0.0 0.0 0.00 0.00 0.00 86 1021.7
20260831221905 17 0.0 0.0 0.00 0.00 0.00 87 1021.7
20260831220904 17 0.0 0.0 0.00 0.00 0.00 87 1021.7
20260831215904 17 0.0 0.0 0.00 0.00 0.00 87 1021.8
20260831214904 17 0.0 0.0 0.00 0.00 0.00 86 1021.7
20260831213905 17 0.0 0.0 0.00 0.00 0.00 86 1021.6
20260831212905 17 0.0 0.0 0.00 0.00 0.00 87 1021.5
20260831211905 17 0.0 0.0 0.00 0.00 0.00 87 1021.4
20260831210905 17 0.0 0.0 0.00 0.00 0.00 87 1021.3
20260831205905 18 0.0 0.0 0.00 0.00 0.00 87 1021.2
20260831204910 18 0.0 0.0 0.00 0.00 0.00 87 1021.0
20260831200905 18 0.0 0.0 0.00 0.00 0.00 87 1020.5
20260831195909 18 0.0 0.0 0.00 0.00 0.00 87 1020.2
20260831193904 18 0.0 0.0 0.00 0.00 0.00 86 1020.0
20260831192905 18 0.0 0.0 0.00 0.00 0.00 85 1019.8
20260831191906 18 0.0 0.0 0.00 0.00 0.00 85 1019.8
20260831190905 18 0.0 0.0 0.00 0.00 0.00 84 1019.8
20260831185906 18 0.0 0.0 0.00 0.00 0.00 84 1019.7
20260831184907 18 0.0 0.0 0.00 0.00 0.00 84 1019.6
20260831183904 18 0.0 0.0 0.00 0.00 0.00 84 1019.4
20260831182904 18 0.0 0.0 0.00 0.00 0.00 84 1018.8
20260831181905 18 0.0 0.0 0.00 0.00 0.00 84 1018.9
20260831180905 18 0.0 0.0 0.00 0.00 0.00 82 1018.7